This demonstration page uses our WeatherBlox Daily Observations layout. Learn more.

Left ArrowRight Arrow

39.51506, -84.39828

Hourly Observations for February 21, 2021

Temp ( °F °C ) Dew Point ( °F °C ) Humidity (%) Winds ( mph kmh ) Pressure ( in mb ) Visibility ( mi km ) Precip ( " mm )
12:15 am 00:15 Clear 11 -11.5 10 -12.3 94 94 Calm 30.53 1034 7 11 0.00 0.00
12:35 am 00:35 Clear 11 -11.7 9 -12.8 92 92 Calm 30.53 1034 10 16 0.00 0.00
12:55 am 00:55 Clear 10 -12.1 8 -13.4 90 90 Calm 30.53 1034 10 16 0.00 0.00
1:15 am 01:15 Clear 10 -12.3 8 -13.3 92 92 Calm 30.54 1034 7 11 0.00 0.00
1:35 am 01:35 Clear 9 -12.6 7 -13.7 92 92 N 3 6 30.54 1034 7 11 0.00 0.00
1:55 am 01:55 Clear 9 -12.8 7 -13.7 93 93 Calm 30.54 1034 7 11 0.00 0.00
2:15 am 02:15 Clear with Mist and Fog 10 -12.5 8 -13.3 94 94 Calm 30.54 1034 7 11 0.00 0.00
2:35 am 02:35 Clear 8 -13.2 6 -14.2 92 92 Calm 30.54 1034 7 11 0.00 0.00
2:55 am 02:55 Clear 8 -13.4 6 -14.3 93 93 Calm 30.54 1034 7 11 0.00 0.00
3:15 am 03:15 Clear with Mist and Fog 6 -14.3 5 -15.2 93 93 Calm 30.55 1034 5 8 0.00 0.00
3:35 am 03:35 Clear with Mist and Fog 6 -14.2 4 -15.3 91 91 NNE 3 6 30.55 1034 7 11 0.00 0.00
3:55 am 03:55 Clear with Mist and Fog 7 -13.8 5 -15 91 91 NE 3 6 30.54 1034 7 11 0.00 0.00
4:15 am 04:15 Clear 6 -14.6 4 -15.8 91 91 Calm 30.54 1034 7 11 0.00 0.00
4:35 am 04:35 Clear with Mist and Fog 7 -14 5 -15.2 91 91 Calm 30.53 1034 5 8 0.00 0.00
4:55 am 04:55 Clear with Mist and Fog 6 -14.3 4 -15.6 90 90 Calm 30.53 1034 7 11 0.00 0.00
5:15 am 05:15 Clear with Mist and Fog 6 -14.2 4 -15.5 90 90 Calm 30.52 1033 5 8 0.00 0.00
5:35 am 05:35 Clear with Mist and Fog 6 -14.4 4 -15.7 90 90 Calm 30.53 1034 7 11 0.00 0.00
5:55 am 05:55 Clear with Mist and Fog 5 -14.9 3 -16.2 90 90 Calm 30.53 1034 5 8 0.00 0.00
6:15 am 06:15 Clear 7 -14 5 -15.2 91 91 Calm 30.54 1034 7 11 0.00 0.00
6:35 am 06:35 Clear 7 -13.9 5 -15.1 91 91 Calm 30.55 1034 7 11 0.00 0.00
6:55 am 06:55 Clear with Mist and Fog 6 -14.2 4 -15.6 89 89 NNE 3 6 30.54 1034 7 11 0.00 0.00
7:15 am 07:15 Clear with Mist and Fog 7 -13.7 5 -14.9 91 91 NNE 5 7 30.53 1034 7 11 0.00 0.00
7:35 am 07:35 Sunny with Mist and Fog 7 -14 4 -15.3 90 90 Calm 30.53 1034 7 11 0.00 0.00
7:55 am 07:55 Sunny with Mist and Fog 8 -13.5 6 -14.6 92 92 N 3 6 30.52 1034 7 11 0.00 0.00
8:15 am 08:15 Sunny with Mist and Fog 10 -12.1 8 -13.1 92 92 Calm 30.53 1034 7 11 0.00 0.00
8:35 am 08:35 Sunny with Mist and Fog 12 -11.1 10 -12 93 93 Calm 30.53 1034 5 8 0.00 0.00
8:55 am 08:55 Sunny with Mist and Fog 12 -11.2 10 -12.1 93 93 Calm 30.53 1034 7 11 0.00 0.00
9:15 am 09:15 Sunny 16 -8.9 15 -9.4 96 96 Calm 30.51 1033 7 11 0.00 0.00
9:35 am 09:35 Sunny 20 -6.9 19 -7.3 97 97 Calm 30.51 1033 10 16 0.00 0.00
9:55 am 09:55 Sunny 22 -5.8 20 -6.5 95 95 Calm 30.50 1033 10 16 0.00 0.00
10:15 am 10:15 Sunny 27 -3 18 -8 69 69 SE 10 17 30.49 1033 10 16 0.00 0.00
10:35 am 10:35 Sunny 28 -2.2 17 -8.3 63 63 SSE 9 15 30.47 1032 10 16 0.00 0.00
10:55 am 10:55 Sunny 30 -1.3 18 -8 61 61 SE 7 11 30.47 1032 10 16 0.00 0.00
11:15 am 11:15 Sunny 32 0 18 -7.8 56 56 SE 9 15 30.46 1031 10 16 0.00 0.00
11:35 am 11:35 Sunny 33 0.5 18 -7.8 54 54 SE 6 9 30.45 1031 10 16 0.00 0.00
11:55 am 11:55 Sunny 34 1.1 19 -7.3 54 54 SSE 7 11 30.43 1031 10 16 0.00 0.00
12:15 pm 12:15 Sunny 34 1.3 19 -7.4 53 53 SSE 8 13 30.42 1030 10 16 0.00 0.00
12:35 pm 12:35 Sunny 36 2 19 -7.4 50 50 SE 12 19 30.41 1030 10 16 0.00 0.00
12:55 pm 12:55 Sunny 37 2.6 19 -7.1 49 49 SSE 10 17 30.39 1029 10 16 0.00 0.00
1:15 pm 13:15 Sunny 37 2.8 19 -7 49 49 SSE 13 20 30.37 1028 10 16 0.00 0.00
1:35 pm 13:35 Sunny 37 2.8 20 -6.7 50 50 ESE 10 17 30.35 1028 10 16 0.00 0.00
1:55 pm 13:55 Sunny 37 3 20 -6.8 49 49 ESE 10 17 30.34 1027 10 16 0.00 0.00
2:15 pm 14:15 Sunny 39 3.7 20 -6.5 48 48 SSE 13 20 30.32 1027 10 16 0.00 0.00
2:35 pm 14:35 Sunny 40 4.6 21 -6.3 45 45 SSE 10 17 30.30 1026 10 16 0.00 0.00
2:55 pm 14:55 Sunny 41 4.9 21 -6.1 45 45 SSE 10 17 30.28 1025 10 16 0.00 0.00
3:15 pm 15:15 Sunny 41 5 21 -6.1 45 45 SE 10 17 30.27 1025 10 16 0.00 0.00
3:35 pm 15:35 Sunny 41 5 22 -5.8 46 46 SE 10 17 30.26 1025 10 16 0.00 0.00
3:55 pm 15:55 Sunny 41 5.1 21 -6 45 45 SE 13 20 30.25 1024 10 16 0.00 0.00
4:15 pm 16:15 Sunny 41 5.1 21 -6 45 45 SE 10 17 30.23 1024 10 16 0.00 0.00
4:35 pm 16:35 Sunny 41 5.2 21 -6.2 44 44 SE 10 17 30.22 1023 10 16 0.00 0.00
4:55 pm 16:55 Sunny 41 4.9 21 -6 46 46 ESE 6 9 30.21 1023 10 16 0.00 0.00
5:15 pm 17:15 Sunny 40 4.7 21 -5.9 47 47 SE 7 11 30.21 1023 10 16 0.00 0.00
5:35 pm 17:35 Sunny 40 4.6 21 -6 47 47 SE 8 13 30.20 1023 10 16 0.00 0.00
5:55 pm 17:55 Sunny 40 4.3 22 -5.6 49 49 SE 8 13 30.19 1022 10 16 0.00 0.00
6:15 pm 18:15 Partly Cloudy 40 4.2 23 -5 52 52 SSE 8 13 30.18 1022 10 16 0.00 0.00
6:35 pm 18:35 Clear 40 4.2 23 -4.9 52 52 SE 8 13 30.18 1022 10 16 0.00 0.00
6:55 pm 18:55 Partly Cloudy 39 3.9 24 -4.3 55 55 SE 7 11 30.17 1022 10 16 0.00 0.00
7:15 pm 19:15 Partly Cloudy 39 3.9 24 -4.2 56 56 SE 7 11 30.18 1022 10 16 0.00 0.00
7:35 pm 19:35 Partly Cloudy 39 3.8 25 -3.9 58 58 ESE 6 9 30.18 1022 10 16 0.00 0.00
7:55 pm 19:55 Mostly Cloudy 39 3.9 25 -3.8 58 58 SE 7 11 30.15 1021 10 16 0.00 0.00
8:15 pm 20:15 Partly Cloudy 39 3.8 26 -3.4 60 60 SE 6 9 30.15 1021 10 16 0.00 0.00
8:35 pm 20:35 Partly Cloudy 39 3.9 27 -2.7 62 62 SSE 8 13 30.13 1020 10 16 0.00 0.00
8:55 pm 20:55 Mostly Cloudy 39 3.7 28 -2.4 65 65 SE 7 11 30.11 1019 10 16 0.00 0.00
9:15 pm 21:15 Cloudy 38 3.6 28 -2.5 65 65 SE 10 17 30.09 1019 10 16 0.00 0.00
9:35 pm 21:35 Cloudy 38 3.6 27 -2.7 64 64 SSE 9 15 30.08 1018 10 16 0.00 0.00
9:55 pm 21:55 Cloudy 39 3.8 27 -2.8 62 62 SSE 9 15 30.07 1018 10 16 0.00 0.00
10:15 pm 22:15 Cloudy 40 4.4 27 -2.8 60 60 S 10 17 30.07 1018 10 16 0.00 0.00
10:35 pm 22:35 Cloudy 39 4.1 27 -2.6 62 62 S 9 15 30.04 1017 10 16 0.00 0.00
10:55 pm 22:55 Cloudy 41 4.8 27 -2.6 59 59 SSE 9 15 30.03 1017 10 16 0.00 0.00
11:15 pm 23:15 Cloudy with Drizzle 40 4.5 28 -2.3 62 62 S 10 17 30.01 1016 10 16 0.00 0.00
11:35 pm 23:35 Cloudy 41 5.2 28 -2.2 59 59 SSE 6 9 29.99 1016 10 16 0.00 0.00
11:55 pm 23:55 Cloudy 41 4.9 28 -2.3 60 60 SSE 8 13 29.98 1015 10 16 0.00 0.00

Powered by AerisWeather